QPF
0.01 0.01 0.01 0.01 0.01 0.01 0.02 0.01 0.01 0.00 0.01 0.01 0.02 0.06 0.08 0.03 0.02 0.02 0.02 0.02 0.02 0.02 0.01 0.02 0.03 0.03 0.02 0.03 0.05 0.04 0.04 0.05 0.07 0.06 0.04 0.05 0.09 0.04 0.01 0.02 0.03 0.04 0.04 0.04
0.01 0.01 0.00 0.00 0.01 0.01 0.01 0.01 0.01 0.01 0.01 0.02 0.02 0.03 0.05 0.05 0.02 0.02 0.02 0.02 0.02 0.03 0.02 0.02 0.01 0.01 0.01 0.01 0.03 0.05 0.03 0.03 0.05 0.06 0.04 0.04 0.07 0.07 0.03 0.03 0.05 0.04 0.03 0.04
0.01 0.01 0.01 0.01 0.01 0.01 0.01 0.02 0.01 0.02 0.02 0.02 0.02 0.02 0.03 0.04 0.04 0.04 0.03 0.04 0.03 0.03 0.03 0.02 0.01 0.01 0.01 0.01 0.02 0.04 0.03 0.02 0.03 0.03 0.03 0.04 0.06 0.07 0.04 0.04 0.05 0.04 0.04 0.03
0.01 0.01 0.01 0.01 0.01 0.01 0.01 0.01 0.01 0.01 0.01 0.01 0.01 0.02 0.03 0.05 0.06 0.05 0.03 0.04 0.04 0.04 0.04 0.03 0.02 0.01 0.01 0.01 0.01 0.02 0.03 0.03 0.03 0.03 0.03 0.03 0.03 0.04 0.03 0.03 0.04 0.03 0.03 0.02
0.03 0.01 0.01 0.02 0.02 0.02 0.02 0.01 0.01 0.02 0.01 0.01 0.00 0.01 0.03 0.08 0.06 0.04 0.04 0.04 0.05 0.05 0.04 0.04 0.03 0.01 0.01 0.01 0.01 0.01 0.01 0.02 0.02 0.02 0.03 0.03 0.02 0.02 0.03 0.02 0.03 0.02 0.02 0.01
0.02 0.02 0.03 0.02 0.02 0.02 0.02 0.02 0.02 0.02 0.01 0.01 0.00 0.01 0.03 0.06 0.06 0.03 0.03 0.03 0.03 0.04 0.04 0.05 0.05 0.04 0.02 0.01 0.01 0.01 0.01 0.02 0.02 0.02 0.03 0.03 0.03 0.03 0.03 0.03 0.02 0.02 0.02 0.01
0.02 0.03 0.02 0.02 0.02 0.03 0.04 0.03 0.03 0.01 0.01 0.01 0.00 0.01 0.03 0.04 0.03 0.02 0.03 0.03 0.02 0.02 0.03 0.04 0.05 0.05 0.05 0.04 0.03 0.03 0.03 0.02 0.02 0.02 0.03 0.04 0.05 0.05 0.04 0.03 0.03 0.03 0.03 0.02
0.02 0.03 0.04 0.03 0.02 0.04 0.06 0.04 0.04 0.01 0.00 0.00 0.00 0.00 0.01 0.02 0.02 0.01 0.01 0.02 0.03 0.02 0.03 0.04 0.04 0.04 0.04 0.04 0.03 0.03 0.02 0.02 0.02 0.02 0.03 0.04 0.04 0.05 0.04 0.04 0.05 0.04 0.02 0.02
0.03 0.04 0.04 0.04 0.03 0.05 0.06 0.04 0.04 0.03 0.00 0.00 0.00 0.00 0.01 0.01 0.01 0.01 0.01 0.02 0.03 0.02 0.02 0.02 0.02 0.03 0.03 0.04 0.04 0.03 0.02 0.03 0.03 0.02 0.03 0.03 0.03 0.03 0.04 0.04 0.05 0.04 0.03 0.03
0.03 0.04 0.05 0.03 0.02 0.04 0.06 0.05 0.04 0.04 0.02 0.00 0.00 0.00 0.00 0.00 0.00 0.00 0.00 0.01 0.02 0.02 0.01 0.01 0.01 0.01 0.02 0.03 0.03 0.03 0.02 0.03 0.04 0.03 0.03 0.03 0.03 0.02 0.02 0.03 0.03 0.03 0.04 0.04
0.02 0.04 0.05 0.03 0.01 0.01 0.03 0.04 0.04 0.05 0.04 0.01 0.00 0.00 0.00 0.00 0.01 0.01 0.00 0.00 0.01 0.02 0.01 0.01 0.00 0.01 0.01 0.02 0.02 0.02 0.02 0.01 0.02 0.02 0.03 0.04 0.03 0.03 0.01 0.01 0.01 0.01 0.02 0.03
0.03 0.03 0.04 0.04 0.01 0.00 0.01 0.02 0.02 0.04 0.04 0.02 0.01 0.00 0.00 0.00 0.01 0.01 0.01 0.01 0.01 0.01 0.01 0.01 0.01 0.01 0.01 0.02 0.03 0.03 0.02 0.01 0.01 0.02 0.02 0.02 0.03 0.04 0.03 0.02 0.01 0.01 0.01 0.01
0.02 0.01 0.01 0.01 0.00 0.00 0.00 0.01 0.01 0.01 0.02 0.02 0.01 0.01 0.00 0.00 0.00 0.01 0.01 0.01 0.01 0.01 0.01 0.01 0.02 0.01 0.02 0.02 0.03 0.04 0.04 0.02 0.01 0.02 0.02 0.02 0.02 0.03 0.03 0.03 0.03 0.02 0.01 0.02
0.01 0.00 0.00 0.00 0.00 0.00 0.00 0.00 0.01 0.00 0.00 0.01 0.01 0.01 0.00 0.00 0.00 0.01 0.01 0.01 0.01 0.01 0.01 0.01 0.02 0.01 0.01 0.01 0.02 0.02 0.03 0.05 0.03 0.02 0.02 0.02 0.02 0.02 0.02 0.02 0.02 0.02 0.02 0.02
0.00 0.00 0.00 0.00 0.00 0.00 0.00 0.00 0.00 0.01 0.00 0.00 0.00 0.00 0.00 0.00 0.01 0.01 0.01 0.01 0.02 0.02 0.01 0.01 0.01 0.01 0.01 0.01 0.01 0.02 0.01 0.02 0.03 0.03 0.02 0.03 0.03 0.03 0.03 0.02 0.01 0.02 0.01 0.02
0.00 0.00 0.00 0.00 0.00 0.00 0.00 0.00 0.00 0.00 0.00 0.00 0.00 0.00 0.00 0.00 0.00 0.01 0.01 0.01 0.01 0.02 0.03 0.03 0.02 0.03 0.03 0.03 0.03 0.03 0.02 0.02 0.02 0.02 0.02 0.02 0.03 0.04 0.03 0.02 0.01 0.01 0.01 0.01
0.00 0.00 0.00 0.00 0.00 0.00 0.00 0.00 0.00 0.00 0.00 0.00 0.00 0.00 0.00 0.00 0.00 0.00 0.00 0.01 0.01 0.01 0.02 0.04 0.03 0.04 0.06 0.07 0.07 0.06 0.04 0.03 0.03 0.02 0.02 0.02 0.02 0.03 0.03 0.02 0.02 0.02 0.01 0.01
0.00 0.00 0.00 0.00 0.00 0.00 0.00 0.00 0.00 0.00 0.00 0.00 0.00 0.00 0.00 0.00 0.00 0.00 0.00 0.00 0.00 0.01 0.02 0.02 0.02 0.03 0.06 0.07 0.08 0.09 0.07 0.05 0.03 0.02 0.02 0.02 0.01 0.02 0.02 0.02 0.02 0.02 0.02 0.02
0.00 0.00 0.00 0.00 0.00 0.00 0.00 0.00 0.00 0.00 0.00 0.00 0.00 0.00 0.00 0.00 0.00 0.00 0.00 0.00 0.00 0.01 0.01 0.02 0.02 0.02 0.02 0.03 0.04 0.05 0.06 0.05 0.04 0.03 0.03 0.02 0.02 0.01 0.01 0.02 0.02 0.02 0.01 0.01
0.00 0.00 0.00 0.00 0.00 0.00 0.00 0.00 0.00 0.00 0.00 0.00 0.00 0.00 0.00 0.00 0.00 0.00 0.00 0.00 0.00 0.01 0.01 0.01 0.02 0.02 0.02 0.02 0.02 0.03 0.03 0.03 0.04 0.04 0.04 0.04 0.03 0.02 0.02 0.01 0.02 0.01 0.01 0.01
0.00 0.00 0.00 0.00 0.00 0.00 0.00 0.00 0.00 0.00 0.00 0.00 0.00 0.00 0.01 0.01 0.00 0.00 0.00 0.01 0.00 0.00 0.00 0.01 0.01 0.02 0.02 0.02 0.02 0.03 0.03 0.03 0.05 0.05 0.05 0.05 0.04 0.03 0.03 0.02 0.01 0.01 0.01 0.01
0.00 0.00 0.00 0.00 0.00 0.00 0.00 0.00 0.00 0.00 0.00 0.00 0.00 0.00 0.00 0.00 0.00 0.00 0.00 0.00 0.00 0.01 0.01 0.01 0.01 0.02 0.02 0.02 0.02 0.03 0.05 0.05 0.05 0.04 0.05 0.05 0.04 0.04 0.04 0.03 0.02 0.01 0.01 0.01
0.00 0.00 0.00 0.00 0.00 0.00 0.00 0.00 0.00 0.00 0.00 0.00 0.00 0.00 0.01 0.00 0.00 0.00 0.00 0.00 0.00 0.01 0.01 0.01 0.01 0.02 0.02 0.02 0.02 0.03 0.04 0.04 0.03 0.03 0.03 0.04 0.04 0.04 0.04 0.04 0.03 0.02 0.01 0.01
0.00 0.00 0.00 0.00 0.00 0.00 0.00 0.00 0.00 0.00 0.00 0.00 0.00 0.00 0.00 0.00 0.00 0.00 0.00 0.00 0.01 0.01 0.01 0.01 0.02 0.02 0.01 0.01 0.01 0.02 0.02 0.02 0.02 0.02 0.02 0.03 0.03 0.03 0.03 0.04 0.04 0.03 0.02 0.02
0.00 0.00 0.00 0.00 0.00 0.00 0.00 0.00 0.00 0.00 0.00 0.00 0.01 0.01 0.00 0.00 0.00 0.00 0.00 0.00 0.00 0.01 0.01 0.01 0.02 0.02 0.02 0.02 0.01 0.02 0.02 0.02 0.02 0.01 0.01 0.01 0.02 0.02 0.03 0.03 0.03 0.03 0.03 0.03
0.00 0.00 0.00 0.00 0.00 0.00 0.01 0.01 0.01 0.01 0.01 0.01 0.01 0.01 0.01 0.00 0.00 0.00 0.00 0.00 0.00 0.01 0.01 0.02 0.02 0.03 0.03 0.02 0.02 0.01 0.01 0.01 0.01 0.02 0.02 0.02 0.02 0.02 0.02 0.03 0.03 0.03 0.03 0.03
0.00 0.00 0.00 0.00 0.00 0.01 0.01 0.01 0.01 0.01 0.01 0.01 0.01 0.01 0.00 0.00 0.00 0.00 0.00 0.00 0.01 0.01 0.02 0.02 0.03 0.03 0.02 0.02 0.01 0.01 0.01 0.02 0.02 0.02 0.02 0.03 0.03 0.03 0.03 0.03 0.03 0.03 0.03 0.03
MSLP
1016.44 1016.39 1016.30 1016.11 1015.80 1015.34 1014.71 1013.95 1013.08 1012.16 1011.24 1010.34 1009.49 1008.68 1007.88 1007.04 1006.11 1005.07 1003.89 1002.58 1001.22 999.87 998.64 997.63 996.94 996.63 996.71 997.19 997.99 999.03 1000.23 1001.47 1002.69 1003.84 1004.88 1005.81 1006.67 1007.48 1008.27 1009.07 1009.89 1010.75 1011.63 1012.51
1016.21 1016.15 1016.02 1015.79 1015.42 1014.91 1014.25 1013.50 1012.67 1011.84 1011.04 1010.30 1009.62 1009.00 1008.38 1007.70 1006.91 1005.96 1004.85 1003.57 1002.20 1000.82 999.52 998.42 997.62 997.17 997.11 997.43 998.08 998.98 1000.05 1001.19 1002.33 1003.42 1004.44 1005.37 1006.24 1007.06 1007.88 1008.69 1009.53 1010.38 1011.25 1012.11
1016.01 1015.92 1015.76 1015.48 1015.06 1014.51 1013.83 1013.08 1012.30 1011.53 1010.84 1010.23 1009.70 1009.23 1008.76 1008.22 1007.56 1006.72 1005.69 1004.47 1003.13 1001.76 1000.44 999.29 998.41 997.86 997.66 997.84 998.33 999.08 999.99 1001.00 1002.04 1003.06 1004.03 1004.95 1005.82 1006.67 1007.50 1008.35 1009.20 1010.06 1010.92 1011.77
1015.87 1015.74 1015.52 1015.19 1014.73 1014.13 1013.43 1012.68 1011.92 1011.21 1010.59 1010.07 1009.65 1009.30 1008.94 1008.52 1007.97 1007.24 1006.30 1005.17 1003.90 1002.57 1001.28 1000.13 999.21 998.58 998.28 998.32 998.66 999.25 1000.00 1000.88 1001.80 1002.73 1003.65 1004.54 1005.41 1006.27 1007.13 1008.00 1008.87 1009.75 1010.62 1011.46
1015.79 1015.59 1015.30 1014.91 1014.38 1013.74 1013.01 1012.25 1011.50 1010.82 1010.24 1009.78 1009.44 1009.16 1008.89 1008.56 1008.11 1007.48 1006.64 1005.62 1004.45 1003.20 1001.97 1000.85 999.92 999.25 998.87 998.80 999.00 999.43 1000.04 1000.77 1001.57 1002.40 1003.26 1004.12 1004.98 1005.85 1006.74 1007.63 1008.54 1009.43 1010.30 1011.14
1015.73 1015.44 1015.07 1014.59 1013.99 1013.30 1012.54 1011.75 1011.00 1010.34 1009.79 1009.36 1009.06 1008.84 1008.63 1008.37 1008.00 1007.46 1006.74 1005.82 1004.77 1003.63 1002.49 1001.43 1000.52 999.84 999.40 999.23 999.31 999.60 1000.07 1000.66 1001.34 1002.08 1002.87 1003.69 1004.54 1005.42 1006.32 1007.24 1008.16 1009.07 1009.95 1010.79
1015.64 1015.25 1014.78 1014.21 1013.54 1012.80 1012.00 1011.20 1010.45 1009.79 1009.26 1008.86 1008.58 1008.39 1008.23 1008.03 1007.72 1007.28 1006.65 1005.86 1004.92 1003.90 1002.86 1001.88 1001.01 1000.33 999.86 999.62 999.59 999.76 1000.10 1000.56 1001.13 1001.79 1002.51 1003.29 1004.12 1004.99 1005.90 1006.83 1007.76 1008.68 1009.56 1010.39
1015.47 1014.97 1014.40 1013.75 1013.03 1012.24 1011.42 1010.62 1009.88 1009.24 1008.73 1008.36 1008.11 1007.95 1007.82 1007.66 1007.42 1007.05 1006.53 1005.84 1005.02 1004.11 1003.17 1002.26 1001.45 1000.78 1000.28 999.98 999.87 999.94 1000.16 1000.51 1000.98 1001.55 1002.21 1002.94 1003.74 1004.60 1005.50 1006.43 1007.35 1008.26 1009.13 1009.95
1015.17 1014.57 1013.92 1013.22 1012.45 1011.65 1010.85 1010.07 1009.37 1008.77 1008.30 1007.96 1007.75 1007.62 1007.52 1007.40 1007.22 1006.91 1006.47 1005.87 1005.15 1004.34 1003.50 1002.66 1001.89 1001.24 1000.72 1000.38 1000.19 1000.17 1000.30 1000.55 1000.93 1001.42 1002.01 1002.69 1003.45 1004.28 1005.16 1006.06 1006.97 1007.86 1008.71 1009.51
1014.71 1014.05 1013.35 1012.62 1011.86 1011.09 1010.33 1009.61 1008.98 1008.45 1008.04 1007.76 1007.59 1007.50 1007.43 1007.35 1007.20 1006.95 1006.57 1006.05 1005.41 1004.68 1003.90 1003.13 1002.40 1001.76 1001.24 1000.85 1000.61 1000.51 1000.55 1000.73 1001.02 1001.43 1001.95 1002.57 1003.28 1004.06 1004.90 1005.77 1006.64 1007.50 1008.33 1009.10
1014.09 1013.41 1012.71 1011.99 1011.28 1010.58 1009.91 1009.29 1008.76 1008.33 1008.01 1007.80 1007.68 1007.63 1007.59 1007.53 1007.41 1007.19 1006.85 1006.39 1005.81 1005.14 1004.42 1003.70 1003.00 1002.38 1001.85 1001.43 1001.15 1000.99 1000.96 1001.05 1001.27 1001.60 1002.05 1002.60 1003.24 1003.96 1004.74 1005.56 1006.39 1007.21 1008.00 1008.75
1013.34 1012.67 1012.01 1011.37 1010.75 1010.16 1009.61 1009.13 1008.73 1008.41 1008.19 1008.06 1008.00 1007.98 1007.97 1007.93 1007.82 1007.61 1007.30 1006.87 1006.33 1005.71 1005.04 1004.36 1003.70 1003.09 1002.56 1002.13 1001.81 1001.60 1001.51 1001.53 1001.67 1001.92 1002.29 1002.75 1003.32 1003.96 1004.67 1005.43 1006.20 1006.98 1007.74 1008.46
1012.49 1011.88 1011.30 1010.77 1010.28 1009.84 1009.44 1009.11 1008.85 1008.66 1008.54 1008.48 1008.47 1008.48 1008.48 1008.44 1008.33 1008.13 1007.83 1007.42 1006.92 1006.34 1005.72 1005.08 1004.45 1003.87 1003.35 1002.91 1002.56 1002.32 1002.17 1002.13 1002.19 1002.35 1002.62 1003.00 1003.47 1004.03 1004.65 1005.34 1006.06 1006.79 1007.52 1008.22
1011.60 1011.08 1010.62 1010.23 1009.89 1009.61 1009.38 1009.20 1009.08 1009.00 1008.97 1008.97 1009.00 1009.02 1009.02 1008.97 1008.86 1008.65 1008.36 1007.97 1007.50 1006.96 1006.39 1005.80 1005.22 1004.67 1004.17 1003.74 1003.38 1003.10 1002.91 1002.79 1002.78 1002.85 1003.02 1003.29 1003.66 1004.11 1004.65 1005.26 1005.92 1006.61 1007.31 1008.00
1010.73 1010.33 1010.01 1009.77 1009.60 1009.48 1009.40 1009.36 1009.36 1009.37 1009.41 1009.45 1009.50 1009.52 1009.51 1009.44 1009.31 1009.10 1008.81 1008.45 1008.02 1007.53 1007.01 1006.48 1005.96 1005.46 1004.99 1004.57 1004.21 1003.90 1003.66 1003.48 1003.38 1003.36 1003.42 1003.58 1003.84 1004.19 1004.63 1005.16 1005.76 1006.40 1007.08 1007.77
1009.94 1009.67 1009.50 1009.41 1009.39 1009.42 1009.47 1009.55 1009.63 1009.71 1009.79 1009.86 1009.90 1009.91 1009.88 1009.79 1009.65 1009.44 1009.16 1008.83 1008.44 1008.01 1007.56 1007.10 1006.64 1006.19 1005.77 1005.37 1005.01 1004.68 1004.39 1004.15 1003.96 1003.84 1003.80 1003.84 1003.98 1004.23 1004.58 1005.02 1005.55 1006.15 1006.81 1007.49
1009.28 1009.15 1009.11 1009.16 1009.27 1009.41 1009.57 1009.72 1009.86 1009.98 1010.08 1010.15 1010.17 1010.17 1010.11 1010.01 1009.86 1009.65 1009.40 1009.10 1008.77 1008.40 1008.02 1007.63 1007.24 1006.85 1006.47 1006.10 1005.74 1005.39 1005.06 1004.76 1004.49 1004.27 1004.13 1004.06 1004.09 1004.23 1004.48 1004.84 1005.30 1005.86 1006.48 1007.15
1008.79 1008.77 1008.86 1009.01 1009.21 1009.43 1009.65 1009.85 1010.02 1010.16 1010.25 1010.30 1010.31 1010.28 1010.21 1010.10 1009.95 1009.77 1009.54 1009.29 1009.01 1008.71 1008.40 1008.07 1007.74 1007.41 1007.07 1006.72 1006.37 1006.01 1005.64 1005.29 1004.95 1004.65 1004.40 1004.23 1004.16 1004.20 1004.36 1004.63 1005.03 1005.53 1006.11 1006.76
1008.48 1008.56 1008.72 1008.94 1009.20 1009.46 1009.70 1009.91 1010.08 1010.20 1010.28 1010.32 1010.31 1010.27 1010.19 1010.09 1009.95 1009.79 1009.60 1009.40 1009.17 1008.93 1008.68 1008.42 1008.14 1007.85 1007.55 1007.22 1006.87 1006.50 1006.11 1005.71 1005.32 1004.95 1004.62 1004.37 1004.21 1004.16 1004.23 1004.42 1004.75 1005.18 1005.72 1006.32
1008.33 1008.46 1008.67 1008.92 1009.19 1009.44 1009.67 1009.86 1010.01 1010.11 1010.17 1010.19 1010.17 1010.13 1010.06 1009.98 1009.87 1009.74 1009.60 1009.44 1009.26 1009.07 1008.87 1008.65 1008.41 1008.16 1007.87 1007.56 1007.22 1006.84 1006.44 1006.01 1005.59 1005.17 1004.79 1004.48 1004.24 1004.12 1004.11 1004.23 1004.48 1004.84 1005.31 1005.86
1008.29 1008.44 1008.65 1008.89 1009.12 1009.34 1009.53 1009.68 1009.79 1009.86 1009.90 1009.91 1009.90 1009.87 1009.83 1009.78 1009.71 1009.62 1009.52 1009.40 1009.27 1009.12 1008.95 1008.76 1008.54 1008.31 1008.04 1007.74 1007.40 1007.03 1006.62 1006.19 1005.75 1005.32 1004.91 1004.55 1004.27 1004.08 1004.01 1004.05 1004.22 1004.51 1004.91 1005.39
1008.30 1008.44 1008.61 1008.79 1008.97 1009.12 1009.25 1009.34 1009.41 1009.45 1009.47 1009.49 1009.50 1009.50 1009.49 1009.48 1009.46 1009.42 1009.36 1009.29 1009.18 1009.06 1008.91 1008.73 1008.53 1008.31 1008.05 1007.75 1007.43 1007.07 1006.67 1006.25 1005.82 1005.38 1004.96 1004.58 1004.27 1004.04 1003.91 1003.89 1003.98 1004.19 1004.50 1004.90
1008.30 1008.38 1008.49 1008.59 1008.68 1008.75 1008.80 1008.83 1008.86 1008.87 1008.89 1008.92 1008.96 1009.01 1009.05 1009.10 1009.13 1009.14 1009.13 1009.09 1009.01 1008.90 1008.77 1008.60 1008.40 1008.17 1007.92 1007.64 1007.32 1006.98 1006.60 1006.20 1005.78 1005.36 1004.95 1004.57 1004.24 1003.97 1003.80 1003.71 1003.74 1003.86 1004.10 1004.42
1008.20 1008.22 1008.24 1008.25 1008.25 1008.23 1008.20 1008.18 1008.16 1008.16 1008.19 1008.24 1008.33 1008.42 1008.53 1008.64 1008.73 1008.80 1008.84 1008.83 1008.78 1008.69 1008.56 1008.39 1008.19 1007.97 1007.71 1007.44 1007.13 1006.80 1006.45 1006.08 1005.68 1005.28 1004.88 1004.50 1004.16 1003.87 1003.65 1003.51 1003.47 1003.52 1003.68 1003.92
1007.98 1007.92 1007.85 1007.77 1007.67 1007.57 1007.48 1007.40 1007.36 1007.36 1007.41 1007.50 1007.64 1007.80 1007.98 1008.16 1008.32 1008.45 1008.53 1008.57 1008.55 1008.47 1008.35 1008.19 1007.98 1007.75 1007.50 1007.23 1006.93 1006.61 1006.27 1005.92 1005.54 1005.16 1004.77 1004.39 1004.03 1003.72 1003.46 1003.28 1003.17 1003.16 1003.24 1003.41
1007.59 1007.46 1007.31 1007.15 1006.98 1006.81 1006.67 1006.57 1006.52 1006.53 1006.61 1006.75 1006.95 1007.18 1007.44 1007.70 1007.93 1008.12 1008.27 1008.35 1008.36 1008.31 1008.21 1008.05 1007.85 1007.62 1007.36 1007.08 1006.78 1006.47 1006.13 1005.78 1005.40 1005.02 1004.63 1004.24 1003.86 1003.52 1003.22 1002.99 1002.83 1002.76 1002.78 1002.89
1007.04 1006.86 1006.65 1006.43 1006.21 1006.00 1005.84 1005.73 1005.69 1005.73 1005.86 1006.06 1006.32 1006.64 1006.97 1007.31 1007.62 1007.89 1008.09 1008.23 1008.28 1008.27 1008.18 1008.04 1007.84 1007.61 1007.34 1007.05 1006.74 1006.41 1006.06 1005.69 1005.30 1004.90 1004.48 1004.06 1003.66 1003.28 1002.94 1002.66 1002.45 1002.32 1002.30 1002.36
Thickness
5646 5653 5655 5656 5658 5659 5654 5649 5642 5649 5653 5661 5666 5669 5671 5671 5671 5671 5671 5671 5670 5668 5667 5667 5667 5666 5665 5664 5663 5661 5659 5657 5656 5654 5652 5650 5648 5646 5643 5641 5639 5636 5633 5631
5639 5648 5650 5649 5653 5655 5654 5655 5651 5652 5652 5665 5666 5664 5663 5664 5665 5664 5665 5666 5666 5665 5664 5662 5661 5661 5660 5659 5657 5655 5653 5651 5650 5648 5646 5644 5642 5639 5637 5634 5632 5629 5627 5625
5621 5634 5639 5635 5647 5650 5650 5653 5652 5645 5650 5658 5657 5658 5659 5659 5660 5660 5661 5661 5660 5660 5659 5658 5657 5656 5655 5654 5652 5650 5648 5646 5644 5642 5640 5638 5637 5633 5630 5628 5625 5623 5620 5619
5612 5619 5614 5635 5652 5653 5648 5648 5651 5650 5653 5655 5656 5657 5657 5657 5655 5655 5655 5655 5655 5654 5653 5652 5653 5652 5651 5648 5646 5644 5642 5640 5639 5637 5635 5632 5630 5627 5625 5622 5620 5617 5615 5614
5603 5604 5613 5633 5645 5645 5639 5638 5645 5645 5647 5648 5650 5647 5646 5650 5652 5651 5651 5651 5650 5649 5648 5647 5646 5645 5643 5641 5639 5637 5635 5634 5633 5631 5629 5626 5624 5622 5619 5617 5614 5612 5610 5608
5598 5599 5601 5622 5640 5646 5638 5626 5638 5641 5639 5639 5639 5629 5632 5643 5644 5645 5645 5645 5643 5642 5641 5639 5639 5638 5636 5634 5633 5631 5631 5629 5628 5626 5624 5621 5619 5616 5613 5611 5609 5607 5605 5604
5593 5593 5603 5624 5634 5636 5616 5619 5632 5635 5634 5633 5629 5629 5633 5636 5637 5638 5638 5637 5636 5634 5632 5632 5631 5630 5628 5627 5626 5627 5626 5624 5622 5620 5618 5616 5613 5610 5608 5605 5602 5600 5599 5598
5588 5587 5597 5622 5624 5619 5618 5625 5627 5628 5630 5629 5627 5628 5629 5629 5629 5629 5628 5628 5628 5625 5624 5624 5623 5622 5620 5619 5621 5620 5618 5617 5615 5613 5612 5610 5607 5604 5601 5598 5596 5594 5592 5592
5593 5596 5608 5615 5617 5620 5620 5619 5620 5621 5623 5623 5622 5621 5621 5621 5621 5621 5621 5620 5619 5617 5616 5615 5616 5615 5613 5614 5614 5613 5611 5609 5607 5605 5604 5603 5600 5597 5594 5591 5589 5588 5586 5585
5590 5597 5604 5608 5611 5614 5615 5615 5615 5616 5616 5617 5615 5615 5614 5614 5613 5613 5613 5612 5611 5609 5608 5607 5608 5608 5608 5608 5607 5605 5603 5600 5599 5597 5596 5594 5592 5591 5588 5586 5583 5582 5581 5580
5583 5590 5594 5599 5603 5606 5608 5609 5609 5610 5610 5609 5608 5607 5607 5606 5606 5605 5605 5604 5603 5601 5601 5600 5601 5601 5601 5600 5599 5597 5595 5593 5592 5590 5588 5586 5584 5583 5582 5582 5581 5579 5577 5575
5578 5586 5584 5589 5596 5599 5599 5599 5600 5601 5600 5600 5600 5599 5599 5598 5598 5597 5596 5595 5594 5593 5593 5592 5593 5593 5593 5593 5591 5589 5586 5585 5584 5582 5580 5578 5576 5574 5574 5574 5574 5573 5573 5571
5583 5585 5584 5587 5589 5592 5592 5592 5593 5593 5592 5591 5591 5591 5590 5590 5589 5589 5588 5587 5587 5586 5586 5585 5585 5585 5585 5584 5583 5582 5580 5579 5577 5575 5573 5570 5568 5566 5565 5565 5565 5564 5564 5564
5581 5579 5577 5580 5581 5583 5584 5585 5585 5584 5584 5584 5583 5582 5581 5581 5581 5580 5579 5580 5580 5579 5578 5578 5577 5577 5577 5577 5576 5575 5574 5573 5571 5569 5566 5564 5562 5560 5558 5556 5555 5554 5555 5555
5574 5574 5573 5574 5575 5575 5576 5575 5574 5573 5574 5574 5575 5575 5574 5572 5572 5572 5572 5572 5571 5571 5570 5570 5570 5569 5569 5569 5568 5567 5566 5564 5563 5561 5559 5556 5554 5552 5550 5548 5547 5545 5544 5544
5568 5568 5567 5566 5566 5567 5566 5566 5564 5564 5565 5566 5566 5566 5566 5566 5565 5564 5564 5564 5563 5562 5562 5562 5562 5562 5562 5561 5560 5559 5558 5558 5556 5553 5550 5548 5546 5543 5541 5539 5537 5536 5535 5535
5559 5558 5558 5558 5558 5559 5558 5558 5557 5556 5557 5557 5558 5558 5557 5557 5556 5555 5555 5556 5556 5555 5555 5555 5555 5554 5554 5553 5551 5550 5548 5548 5548 5545 5542 5540 5538 5536 5533 5531 5529 5528 5527 5526
5558 5556 5555 5553 5551 5551 5551 5550 5549 5549 5548 5549 5550 5549 5549 5548 5547 5547 5547 5547 5547 5546 5547 5547 5547 5546 5545 5544 5542 5541 5540 5539 5538 5536 5534 5532 5530 5528 5526 5524 5522 5520 5518 5516
5552 5550 5548 5547 5546 5543 5542 5542 5542 5541 5541 5541 5541 5540 5540 5540 5540 5540 5539 5538 5538 5537 5538 5539 5539 5538 5537 5536 5535 5533 5531 5530 5528 5527 5525 5524 5522 5520 5518 5516 5514 5512 5510 5508
5543 5542 5541 5539 5539 5536 5534 5534 5533 5533 5533 5532 5532 5531 5531 5531 5531 5531 5530 5529 5529 5529 5530 5530 5530 5529 5528 5527 5527 5525 5523 5522 5520 5518 5516 5514 5513 5511 5509 5508 5506 5503 5501 5499
5532 5532 5531 5530 5529 5528 5527 5526 5526 5525 5525 5525 5523 5523 5522 5522 5522 5522 5521 5519 5520 5521 5521 5522 5520 5520 5519 5519 5519 5517 5515 5513 5511 5509 5507 5505 5504 5502 5500 5499 5497 5495 5493 5491
5522 5522 5522 5521 5520 5520 5520 5519 5519 5518 5518 5517 5517 5515 5514 5513 5513 5513 5512 5511 5512 5513 5512 5512 5511 5512 5511 5511 5509 5508 5507 5505 5503 5501 5498 5496 5495 5494 5492 5490 5489 5488 5486 5484
5513 5513 5513 5512 5512 5511 5511 5511 5511 5511 5510 5509 5508 5507 5506 5505 5504 5503 5502 5503 5503 5504 5503 5503 5503 5504 5503 5501 5499 5499 5497 5496 5494 5492 5490 5488 5487 5486 5484 5483 5481 5480 5478 5476
5505 5504 5505 5504 5503 5502 5501 5502 5502 5502 5502 5501 5500 5499 5498 5496 5495 5495 5495 5495 5495 5495 5494 5494 5495 5495 5494 5491 5489 5488 5487 5486 5484 5483 5481 5480 5478 5477 5476 5474 5473 5471 5471 5469
5498 5497 5496 5495 5494 5494 5493 5493 5493 5492 5492 5491 5491 5490 5490 5489 5487 5486 5486 5486 5486 5486 5484 5484 5485 5485 5483 5481 5480 5479 5478 5477 5475 5474 5472 5471 5470 5468 5467 5466 5465 5464 5463 5462
5490 5489 5488 5487 5486 5485 5484 5484 5483 5483 5482 5481 5480 5481 5480 5479 5479 5477 5477 5476 5476 5476 5474 5473 5473 5473 5472 5471 5470 5469 5468 5467 5466 5464 5464 5462 5461 5460 5459 5458 5457 5456 5456 5455
5481 5480 5479 5478 5478 5477 5476 5475 5475 5474 5474 5473 5472 5472 5471 5470 5469 5468 5467 5466 5465 5465 5464 5463 5463 5462 5461 5461 5459 5458 5458 5457 5456 5455 5455 5454 5453 5452 5451 5450 5450 5449 5448 5448